QPF
0.03 0.06 0.06 0.05 0.04 0.04 0.04 0.03 0.03 0.03 0.03 0.03 0.03 0.03 0.02 0.01 0.01 0.02 0.03 0.03 0.02 0.02 0.01 0.01 0.01 0.04 0.03 0.03 0.03 0.03 0.03 0.04 0.02 0.01 0.02 0.02 0.02 0.03 0.04 0.07 0.10 0.08 0.05
0.04 0.09 0.11 0.10 0.08 0.07 0.06 0.06 0.05 0.05 0.04 0.03 0.03 0.03 0.03 0.01 0.01 0.02 0.03 0.03 0.03 0.02 0.03 0.02 0.02 0.03 0.03 0.02 0.02 0.03 0.04 0.04 0.04 0.02 0.02 0.03 0.02 0.02 0.02 0.03 0.06 0.06 0.04
0.06 0.08 0.09 0.09 0.07 0.05 0.05 0.05 0.04 0.04 0.03 0.03 0.03 0.03 0.02 0.01 0.01 0.02 0.04 0.04 0.03 0.02 0.02 0.02 0.01 0.02 0.02 0.02 0.03 0.03 0.04 0.06 0.06 0.05 0.04 0.03 0.03 0.04 0.03 0.02 0.05 0.06 0.05
0.07 0.06 0.06 0.06 0.05 0.05 0.03 0.03 0.03 0.03 0.03 0.03 0.03 0.02 0.02 0.02 0.02 0.03 0.04 0.04 0.03 0.03 0.02 0.01 0.01 0.02 0.02 0.03 0.04 0.04 0.05 0.06 0.07 0.07 0.06 0.05 0.04 0.04 0.04 0.04 0.05 0.07 0.08
0.17 0.12 0.08 0.08 0.06 0.05 0.04 0.04 0.03 0.03 0.03 0.03 0.02 0.03 0.05 0.04 0.03 0.04 0.05 0.04 0.04 0.02 0.02 0.02 0.03 0.03 0.04 0.06 0.05 0.04 0.05 0.06 0.06 0.06 0.05 0.05 0.05 0.04 0.04 0.04 0.04 0.04 0.05
0.17 0.15 0.10 0.08 0.07 0.06 0.06 0.07 0.05 0.05 0.05 0.06 0.07 0.06 0.05 0.04 0.04 0.06 0.06 0.06 0.04 0.03 0.03 0.03 0.04 0.04 0.05 0.05 0.04 0.03 0.04 0.04 0.04 0.04 0.04 0.04 0.03 0.04 0.04 0.04 0.03 0.03 0.05
0.21 0.19 0.15 0.10 0.09 0.08 0.08 0.07 0.06 0.07 0.09 0.09 0.08 0.07 0.06 0.05 0.06 0.05 0.06 0.05 0.04 0.03 0.04 0.04 0.03 0.03 0.03 0.03 0.04 0.04 0.04 0.04 0.03 0.02 0.02 0.02 0.03 0.04 0.04 0.03 0.02 0.02 0.03
0.14 0.14 0.13 0.11 0.10 0.11 0.11 0.09 0.10 0.12 0.12 0.11 0.08 0.06 0.05 0.05 0.06 0.06 0.05 0.05 0.05 0.05 0.04 0.04 0.05 0.05 0.04 0.05 0.04 0.04 0.03 0.03 0.03 0.02 0.02 0.01 0.01 0.02 0.03 0.03 0.04 0.03 0.04
0.14 0.14 0.12 0.12 0.11 0.11 0.11 0.13 0.13 0.13 0.13 0.12 0.10 0.07 0.06 0.05 0.05 0.05 0.05 0.05 0.05 0.05 0.06 0.07 0.08 0.07 0.06 0.06 0.04 0.04 0.03 0.02 0.03 0.03 0.03 0.02 0.02 0.02 0.02 0.03 0.04 0.04 0.03
0.10 0.19 0.22 0.22 0.19 0.14 0.12 0.13 0.14 0.17 0.16 0.14 0.10 0.08 0.07 0.06 0.06 0.07 0.07 0.07 0.07 0.07 0.06 0.06 0.07 0.07 0.07 0.07 0.05 0.04 0.04 0.03 0.04 0.03 0.03 0.02 0.02 0.01 0.01 0.01 0.02 0.02 0.02
0.13 0.15 0.19 0.22 0.20 0.18 0.16 0.14 0.15 0.15 0.14 0.13 0.12 0.11 0.11 0.10 0.08 0.07 0.06 0.07 0.06 0.06 0.05 0.06 0.07 0.08 0.08 0.08 0.08 0.07 0.07 0.07 0.06 0.05 0.04 0.03 0.03 0.02 0.01 0.01 0.01 0.01 0.01
0.16 0.19 0.19 0.20 0.22 0.22 0.18 0.14 0.12 0.12 0.12 0.12 0.10 0.09 0.10 0.10 0.10 0.10 0.09 0.08 0.07 0.07 0.07 0.07 0.07 0.08 0.08 0.08 0.08 0.08 0.10 0.10 0.09 0.09 0.07 0.05 0.06 0.05 0.04 0.03 0.02 0.01 0.01
0.12 0.11 0.13 0.14 0.15 0.16 0.14 0.12 0.10 0.10 0.09 0.09 0.09 0.10 0.13 0.12 0.11 0.10 0.11 0.09 0.08 0.08 0.07 0.07 0.07 0.08 0.08 0.09 0.08 0.07 0.08 0.08 0.08 0.08 0.07 0.07 0.08 0.07 0.05 0.05 0.04 0.03 0.02
0.08 0.08 0.08 0.08 0.08 0.09 0.10 0.10 0.10 0.10 0.09 0.08 0.07 0.09 0.10 0.10 0.07 0.06 0.05 0.04 0.04 0.04 0.05 0.05 0.06 0.05 0.05 0.05 0.05 0.06 0.06 0.07 0.07 0.07 0.07 0.07 0.07 0.06 0.05 0.05 0.06 0.06 0.06
0.06 0.06 0.06 0.06 0.07 0.07 0.07 0.07 0.10 0.10 0.09 0.09 0.09 0.09 0.09 0.09 0.07 0.05 0.02 0.01 0.01 0.02 0.04 0.03 0.03 0.04 0.04 0.03 0.04 0.04 0.03 0.02 0.02 0.02 0.02 0.03 0.03 0.03 0.03 0.04 0.05 0.05 0.05
0.05 0.05 0.05 0.06 0.07 0.08 0.08 0.08 0.12 0.12 0.10 0.09 0.09 0.09 0.10 0.10 0.08 0.07 0.04 0.02 0.02 0.03 0.03 0.03 0.04 0.03 0.04 0.04 0.04 0.03 0.02 0.01 0.01 0.01 0.01 0.01 0.02 0.02 0.03 0.04 0.05 0.05 0.06
0.04 0.04 0.05 0.05 0.06 0.07 0.06 0.07 0.08 0.09 0.07 0.05 0.05 0.04 0.04 0.06 0.07 0.06 0.05 0.04 0.03 0.03 0.02 0.03 0.03 0.03 0.03 0.03 0.02 0.01 0.01 0.01 0.00 0.00 0.00 0.00 0.00 0.01 0.01 0.02 0.03 0.03 0.04
0.04 0.05 0.06 0.05 0.05 0.06 0.05 0.05 0.04 0.04 0.03 0.03 0.02 0.02 0.02 0.02 0.03 0.04 0.04 0.03 0.03 0.03 0.03 0.03 0.03 0.03 0.02 0.02 0.01 0.01 0.01 0.01 0.01 0.00 0.00 0.00 0.00 0.01 0.01 0.01 0.01 0.01 0.02
0.03 0.03 0.04 0.04 0.05 0.06 0.06 0.05 0.04 0.03 0.02 0.01 0.01 0.01 0.02 0.02 0.03 0.03 0.04 0.04 0.03 0.03 0.02 0.02 0.01 0.01 0.01 0.01 0.00 0.00 0.00 0.00 0.00 0.00 0.01 0.01 0.01 0.01 0.00 0.00 0.01 0.01 0.02
0.03 0.03 0.04 0.03 0.04 0.05 0.06 0.05 0.04 0.03 0.02 0.02 0.02 0.02 0.02 0.03 0.02 0.02 0.03 0.03 0.03 0.02 0.01 0.01 0.01 0.01 0.00 0.00 0.00 0.00 0.00 0.00 0.01 0.01 0.01 0.01 0.01 0.01 0.01 0.01 0.01 0.01 0.02
0.02 0.02 0.02 0.02 0.03 0.03 0.03 0.04 0.04 0.04 0.04 0.04 0.04 0.04 0.03 0.02 0.02 0.02 0.02 0.03 0.02 0.01 0.01 0.01 0.01 0.01 0.00 0.00 0.00 0.01 0.01 0.00 0.00 0.00 0.01 0.01 0.01 0.01 0.01 0.02 0.02 0.02 0.02
0.03 0.02 0.02 0.02 0.02 0.02 0.02 0.02 0.03 0.03 0.03 0.04 0.04 0.04 0.04 0.03 0.03 0.03 0.03 0.04 0.04 0.03 0.02 0.02 0.01 0.01 0.01 0.00 0.01 0.01 0.00 0.00 0.01 0.01 0.01 0.02 0.02 0.02 0.02 0.03 0.03 0.03 0.02
0.03 0.03 0.03 0.02 0.03 0.03 0.04 0.03 0.03 0.02 0.03 0.03 0.03 0.04 0.04 0.05 0.05 0.04 0.04 0.03 0.03 0.03 0.02 0.02 0.02 0.02 0.02 0.01 0.01 0.01 0.01 0.01 0.02 0.02 0.02 0.02 0.02 0.02 0.02 0.03 0.03 0.03 0.03
0.04 0.04 0.03 0.03 0.03 0.04 0.04 0.04 0.03 0.03 0.02 0.02 0.03 0.03 0.04 0.05 0.05 0.05 0.05 0.04 0.04 0.04 0.04 0.04 0.03 0.04 0.04 0.03 0.03 0.02 0.02 0.02 0.02 0.02 0.02 0.02 0.02 0.03 0.03 0.03 0.03 0.03 0.03
0.04 0.04 0.03 0.04 0.04 0.04 0.04 0.03 0.02 0.02 0.02 0.02 0.02 0.03 0.03 0.03 0.04 0.05 0.06 0.07 0.06 0.06 0.06 0.06 0.06 0.06 0.06 0.05 0.05 0.04 0.05 0.04 0.04 0.03 0.03 0.04 0.04 0.04 0.04 0.03 0.02 0.03 0.03
0.05 0.04 0.04 0.03 0.04 0.04 0.03 0.02 0.02 0.02 0.03 0.03 0.02 0.02 0.02 0.03 0.05 0.05 0.05 0.06 0.07 0.06 0.05 0.04 0.04 0.04 0.05 0.05 0.05 0.04 0.04 0.03 0.03 0.03 0.03 0.03 0.03 0.04 0.04 0.03 0.02 0.02 0.03
MSLP
1009.72 1009.75 1009.84 1009.94 1010.03 1010.11 1010.19 1010.27 1010.40 1010.57 1010.82 1011.13 1011.48 1011.86 1012.24 1012.59 1012.90 1013.18 1013.42 1013.65 1013.89 1014.16 1014.47 1014.82 1015.20 1015.59 1015.96 1016.28 1016.52 1016.68 1016.75 1016.71 1016.58 1016.37 1016.11 1015.79 1015.46 1015.14 1014.85 1014.60 1014.44 1014.36 1014.38
1009.34 1009.26 1009.22 1009.20 1009.18 1009.17 1009.18 1009.22 1009.33 1009.51 1009.78 1010.12 1010.52 1010.95 1011.38 1011.78 1012.14 1012.45 1012.72 1012.96 1013.20 1013.46 1013.74 1014.06 1014.41 1014.77 1015.13 1015.46 1015.75 1015.97 1016.13 1016.20 1016.20 1016.11 1015.96 1015.75 1015.49 1015.21 1014.93 1014.66 1014.44 1014.29 1014.22
1008.92 1008.78 1008.66 1008.56 1008.45 1008.37 1008.31 1008.31 1008.38 1008.55 1008.81 1009.16 1009.57 1010.02 1010.47 1010.90 1011.29 1011.63 1011.92 1012.19 1012.44 1012.70 1012.97 1013.28 1013.61 1013.95 1014.30 1014.63 1014.94 1015.22 1015.44 1015.60 1015.69 1015.72 1015.68 1015.57 1015.39 1015.17 1014.92 1014.65 1014.41 1014.21 1014.07
1008.39 1008.24 1008.10 1007.95 1007.80 1007.67 1007.57 1007.52 1007.56 1007.69 1007.93 1008.25 1008.65 1009.08 1009.53 1009.96 1010.35 1010.71 1011.02 1011.31 1011.59 1011.86 1012.15 1012.45 1012.78 1013.11 1013.45 1013.79 1014.10 1014.40 1014.65 1014.87 1015.03 1015.14 1015.19 1015.17 1015.08 1014.93 1014.73 1014.50 1014.26 1014.05 1013.88
1007.68 1007.57 1007.46 1007.32 1007.17 1007.03 1006.90 1006.83 1006.84 1006.93 1007.13 1007.41 1007.76 1008.15 1008.56 1008.96 1009.35 1009.70 1010.03 1010.34 1010.64 1010.94 1011.26 1011.58 1011.91 1012.25 1012.58 1012.91 1013.22 1013.50 1013.76 1014.00 1014.20 1014.36 1014.47 1014.52 1014.51 1014.44 1014.32 1014.15 1013.96 1013.76 1013.59
1006.79 1006.76 1006.71 1006.63 1006.52 1006.39 1006.27 1006.20 1006.18 1006.25 1006.40 1006.62 1006.91 1007.25 1007.60 1007.96 1008.31 1008.65 1008.98 1009.31 1009.64 1009.98 1010.33 1010.68 1011.03 1011.37 1011.70 1012.01 1012.29 1012.55 1012.79 1013.00 1013.20 1013.38 1013.52 1013.64 1013.70 1013.72 1013.68 1013.61 1013.49 1013.36 1013.23
1005.77 1005.84 1005.87 1005.87 1005.82 1005.74 1005.66 1005.60 1005.59 1005.64 1005.75 1005.92 1006.15 1006.41 1006.70 1007.00 1007.31 1007.63 1007.95 1008.29 1008.64 1009.01 1009.40 1009.78 1010.15 1010.51 1010.83 1011.11 1011.35 1011.57 1011.76 1011.94 1012.11 1012.28 1012.44 1012.60 1012.73 1012.83 1012.90 1012.93 1012.92 1012.88 1012.82
1004.72 1004.88 1005.00 1005.08 1005.11 1005.10 1005.08 1005.06 1005.07 1005.11 1005.20 1005.34 1005.51 1005.71 1005.93 1006.17 1006.43 1006.71 1007.01 1007.35 1007.72 1008.11 1008.53 1008.94 1009.33 1009.69 1010.00 1010.26 1010.46 1010.63 1010.76 1010.89 1011.02 1011.17 1011.33 1011.52 1011.71 1011.89 1012.06 1012.20 1012.30 1012.37 1012.41
1003.76 1003.99 1004.18 1004.34 1004.45 1004.51 1004.56 1004.60 1004.64 1004.71 1004.80 1004.91 1005.04 1005.19 1005.35 1005.52 1005.72 1005.96 1006.23 1006.56 1006.93 1007.33 1007.76 1008.19 1008.60 1008.96 1009.26 1009.50 1009.67 1009.79 1009.88 1009.96 1010.05 1010.17 1010.33 1010.53 1010.77 1011.03 1011.28 1011.53 1011.74 1011.91 1012.04
1002.99 1003.26 1003.50 1003.72 1003.89 1004.03 1004.15 1004.26 1004.36 1004.46 1004.56 1004.67 1004.77 1004.88 1004.98 1005.10 1005.24 1005.42 1005.66 1005.95 1006.30 1006.70 1007.13 1007.56 1007.98 1008.34 1008.64 1008.86 1009.01 1009.10 1009.16 1009.20 1009.27 1009.37 1009.53 1009.74 1010.01 1010.33 1010.65 1010.98 1011.28 1011.54 1011.75
1002.47 1002.74 1003.00 1003.26 1003.49 1003.69 1003.88 1004.06 1004.22 1004.37 1004.50 1004.61 1004.70 1004.77 1004.82 1004.89 1004.97 1005.09 1005.27 1005.52 1005.83 1006.21 1006.62 1007.05 1007.46 1007.83 1008.13 1008.35 1008.50 1008.58 1008.63 1008.66 1008.72 1008.81 1008.97 1009.20 1009.50 1009.84 1010.21 1010.59 1010.95 1011.27 1011.54
1002.20 1002.44 1002.70 1002.97 1003.23 1003.49 1003.75 1003.99 1004.21 1004.41 1004.57 1004.70 1004.78 1004.82 1004.84 1004.84 1004.86 1004.92 1005.04 1005.23 1005.49 1005.83 1006.22 1006.63 1007.03 1007.40 1007.71 1007.94 1008.11 1008.21 1008.27 1008.32 1008.39 1008.50 1008.67 1008.91 1009.21 1009.57 1009.95 1010.35 1010.73 1011.07 1011.36
1002.13 1002.31 1002.54 1002.81 1003.10 1003.40 1003.71 1004.01 1004.29 1004.54 1004.73 1004.87 1004.95 1004.96 1004.94 1004.89 1004.85 1004.84 1004.89 1005.02 1005.23 1005.52 1005.87 1006.25 1006.65 1007.02 1007.34 1007.61 1007.80 1007.94 1008.05 1008.14 1008.24 1008.37 1008.56 1008.81 1009.11 1009.46 1009.83 1010.21 1010.58 1010.91 1011.19
1002.18 1002.30 1002.49 1002.74 1003.05 1003.38 1003.74 1004.09 1004.41 1004.70 1004.92 1005.06 1005.13 1005.12 1005.05 1004.96 1004.85 1004.78 1004.77 1004.84 1004.99 1005.24 1005.55 1005.91 1006.30 1006.67 1007.02 1007.31 1007.55 1007.75 1007.91 1008.05 1008.20 1008.37 1008.58 1008.83 1009.13 1009.45 1009.80 1010.14 1010.46 1010.75 1010.99
1002.29 1002.34 1002.49 1002.73 1003.04 1003.40 1003.78 1004.17 1004.53 1004.84 1005.08 1005.22 1005.27 1005.24 1005.13 1004.99 1004.84 1004.72 1004.66 1004.67 1004.79 1004.99 1005.27 1005.61 1005.99 1006.37 1006.74 1007.07 1007.35 1007.60 1007.82 1008.02 1008.22 1008.43 1008.66 1008.92 1009.20 1009.50 1009.80 1010.09 1010.35 1010.58 1010.76
1002.44 1002.43 1002.54 1002.76 1003.07 1003.45 1003.85 1004.26 1004.64 1004.96 1005.20 1005.33 1005.36 1005.30 1005.17 1004.99 1004.81 1004.66 1004.57 1004.56 1004.64 1004.82 1005.09 1005.42 1005.79 1006.17 1006.55 1006.91 1007.24 1007.53 1007.80 1008.05 1008.29 1008.53 1008.79 1009.05 1009.32 1009.58 1009.83 1010.06 1010.26 1010.41 1010.53
1002.66 1002.61 1002.69 1002.90 1003.20 1003.58 1004.00 1004.41 1004.79 1005.09 1005.31 1005.43 1005.43 1005.35 1005.20 1005.01 1004.83 1004.67 1004.58 1004.57 1004.65 1004.83 1005.09 1005.42 1005.78 1006.17 1006.55 1006.92 1007.27 1007.58 1007.88 1008.16 1008.43 1008.70 1008.96 1009.22 1009.48 1009.71 1009.92 1010.09 1010.23 1010.32 1010.37
1003.01 1002.93 1003.00 1003.20 1003.50 1003.88 1004.28 1004.68 1005.03 1005.31 1005.50 1005.58 1005.57 1005.47 1005.32 1005.14 1004.97 1004.84 1004.77 1004.79 1004.90 1005.10 1005.37 1005.70 1006.07 1006.45 1006.82 1007.18 1007.52 1007.83 1008.13 1008.42 1008.69 1008.96 1009.23 1009.48 1009.72 1009.93 1010.10 1010.23 1010.31 1010.35 1010.34
1003.58 1003.49 1003.56 1003.75 1004.04 1004.40 1004.77 1005.14 1005.45 1005.69 1005.83 1005.89 1005.85 1005.74 1005.60 1005.45 1005.32 1005.25 1005.24 1005.32 1005.48 1005.72 1006.01 1006.35 1006.71 1007.07 1007.42 1007.75 1008.06 1008.34 1008.61 1008.87 1009.13 1009.38 1009.63 1009.87 1010.09 1010.27 1010.41 1010.51 1010.55 1010.55 1010.50
1004.40 1004.33 1004.40 1004.59 1004.86 1005.19 1005.53 1005.84 1006.09 1006.27 1006.37 1006.39 1006.33 1006.24 1006.12 1006.02 1005.96 1005.96 1006.03 1006.18 1006.41 1006.70 1007.03 1007.38 1007.73 1008.06 1008.37 1008.65 1008.90 1009.13 1009.34 1009.55 1009.77 1009.98 1010.20 1010.41 1010.61 1010.77 1010.89 1010.97 1010.98 1010.94 1010.86
1005.48 1005.44 1005.52 1005.70 1005.95 1006.24 1006.52 1006.76 1006.95 1007.07 1007.12 1007.11 1007.05 1006.96 1006.89 1006.85 1006.87 1006.96 1007.13 1007.37 1007.67 1008.01 1008.38 1008.73 1009.07 1009.37 1009.62 1009.83 1010.01 1010.16 1010.31 1010.45 1010.60 1010.77 1010.94 1011.12 1011.28 1011.42 1011.53 1011.58 1011.58 1011.52 1011.41
1006.75 1006.74 1006.83 1007.00 1007.22 1007.46 1007.68 1007.86 1007.98 1008.04 1008.05 1008.01 1007.95 1007.90 1007.88 1007.91 1008.02 1008.20 1008.47 1008.79 1009.16 1009.56 1009.94 1010.30 1010.62 1010.87 1011.07 1011.20 1011.30 1011.37 1011.43 1011.50 1011.58 1011.68 1011.81 1011.94 1012.08 1012.19 1012.27 1012.31 1012.29 1012.22 1012.09
1008.08 1008.10 1008.20 1008.36 1008.55 1008.73 1008.89 1009.01 1009.07 1009.09 1009.07 1009.02 1008.98 1008.97 1009.01 1009.12 1009.32 1009.59 1009.94 1010.34 1010.76 1011.19 1011.59 1011.94 1012.23 1012.43 1012.57 1012.63 1012.65 1012.64 1012.62 1012.61 1012.63 1012.67 1012.74 1012.83 1012.93 1013.02 1013.08 1013.10 1013.07 1012.98 1012.83
1009.33 1009.38 1009.49 1009.63 1009.78 1009.92 1010.03 1010.10 1010.13 1010.12 1010.09 1010.06 1010.05 1010.09 1010.20 1010.39 1010.66 1011.01 1011.42 1011.87 1012.33 1012.77 1013.17 1013.50 1013.75 1013.91 1013.98 1013.98 1013.93 1013.86 1013.77 1013.70 1013.66 1013.65 1013.68 1013.73 1013.79 1013.85 1013.88 1013.88 1013.83 1013.73 1013.58
1010.38 1010.46 1010.57 1010.70 1010.82 1010.93 1011.01 1011.06 1011.07 1011.06 1011.05 1011.05 1011.10 1011.20 1011.37 1011.63 1011.96 1012.36 1012.82 1013.29 1013.76 1014.20 1014.57 1014.87 1015.07 1015.19 1015.21 1015.16 1015.06 1014.94 1014.81 1014.70 1014.61 1014.56 1014.55 1014.56 1014.59 1014.62 1014.63 1014.61 1014.54 1014.43 1014.26
1011.20 1011.29 1011.40 1011.52 1011.64 1011.73 1011.81 1011.85 1011.88 1011.90 1011.93 1011.98 1012.09 1012.26 1012.50 1012.81 1013.19 1013.62 1014.09 1014.56 1015.01 1015.42 1015.75 1016.00 1016.16 1016.23 1016.21 1016.13 1016.00 1015.84 1015.69 1015.55 1015.45 1015.37 1015.33 1015.31 1015.31 1015.31 1015.29 1015.24 1015.16 1015.03 1014.85
Thickness
5795 5792 5790 5787 5785 5781 5779 5778 5776 5775 5773 5770 5768 5765 5763 5760 5758 5755 5752 5751 5748 5747 5745 5743 5741 5740 5738 5736 5734 5731 5727 5724 5719 5722 5723 5724 5723 5722 5722 5721 5720 5719 5717
5794 5791 5788 5786 5782 5779 5776 5776 5774 5772 5770 5768 5765 5763 5760 5758 5756 5753 5750 5748 5746 5743 5742 5740 5738 5738 5735 5732 5730 5727 5724 5723 5718 5715 5717 5717 5717 5716 5716 5715 5715 5714 5712
5791 5788 5785 5782 5779 5777 5775 5773 5771 5769 5766 5764 5762 5760 5758 5755 5753 5751 5748 5746 5743 5742 5740 5737 5735 5733 5730 5728 5726 5723 5721 5720 5716 5712 5711 5711 5710 5710 5709 5709 5708 5707 5706
5785 5783 5780 5778 5776 5775 5773 5771 5768 5766 5763 5761 5759 5757 5755 5753 5750 5748 5745 5742 5740 5739 5737 5735 5733 5730 5727 5724 5722 5719 5716 5713 5710 5706 5705 5704 5703 5703 5701 5699 5698 5698 5697
5779 5777 5776 5774 5772 5770 5767 5766 5765 5762 5760 5758 5755 5752 5750 5748 5747 5744 5742 5739 5736 5734 5732 5730 5729 5727 5724 5721 5718 5714 5711 5706 5703 5700 5697 5696 5694 5693 5692 5692 5690 5689 5689
5773 5771 5770 5768 5766 5764 5762 5760 5758 5757 5755 5752 5749 5746 5744 5744 5743 5741 5738 5734 5732 5729 5726 5724 5723 5720 5719 5716 5713 5710 5706 5701 5697 5694 5692 5689 5688 5687 5686 5685 5682 5680 5679
5767 5765 5762 5761 5760 5758 5758 5755 5753 5751 5748 5745 5743 5740 5738 5738 5737 5735 5733 5729 5726 5724 5721 5718 5717 5715 5711 5708 5705 5703 5700 5698 5696 5692 5688 5686 5684 5683 5680 5677 5676 5674 5672
5758 5757 5755 5753 5751 5750 5749 5747 5746 5744 5742 5739 5736 5734 5732 5731 5731 5729 5727 5723 5720 5718 5715 5713 5709 5706 5704 5700 5697 5693 5691 5689 5688 5686 5684 5682 5680 5678 5676 5673 5670 5668 5667
5750 5749 5748 5746 5744 5742 5740 5739 5737 5736 5734 5732 5730 5727 5725 5724 5723 5722 5719 5715 5712 5710 5708 5705 5702 5699 5697 5693 5688 5684 5681 5680 5680 5678 5677 5675 5673 5671 5669 5665 5662 5659 5657
5742 5741 5741 5740 5738 5735 5734 5733 5731 5729 5727 5725 5722 5720 5718 5717 5716 5714 5712 5708 5704 5701 5699 5696 5694 5692 5689 5685 5680 5676 5672 5671 5670 5669 5667 5666 5665 5663 5661 5659 5656 5651 5649
5734 5733 5732 5731 5730 5729 5726 5725 5723 5721 5718 5715 5713 5710 5709 5708 5708 5706 5703 5700 5697 5693 5690 5687 5685 5683 5680 5676 5673 5669 5667 5664 5661 5659 5657 5656 5655 5654 5652 5651 5649 5646 5643
5725 5724 5723 5723 5722 5720 5717 5716 5714 5711 5708 5705 5703 5699 5699 5699 5698 5696 5694 5692 5690 5686 5681 5679 5676 5673 5670 5667 5664 5662 5659 5656 5653 5650 5648 5646 5645 5644 5644 5643 5642 5640 5639
5714 5714 5713 5713 5712 5710 5708 5706 5704 5702 5699 5696 5693 5691 5689 5689 5688 5687 5684 5682 5680 5677 5673 5670 5667 5663 5659 5655 5653 5651 5649 5647 5643 5641 5639 5637 5637 5637 5636 5635 5634 5632 5632
5704 5703 5703 5702 5700 5700 5699 5697 5695 5693 5690 5688 5685 5683 5681 5678 5677 5676 5674 5671 5669 5666 5662 5659 5656 5652 5649 5646 5643 5641 5639 5637 5635 5632 5631 5630 5629 5628 5627 5626 5624 5622 5620
5693 5692 5692 5691 5690 5688 5687 5686 5686 5685 5684 5681 5678 5676 5672 5669 5668 5666 5663 5661 5658 5655 5651 5646 5643 5640 5638 5635 5633 5632 5630 5628 5626 5624 5622 5621 5620 5619 5617 5616 5614 5612 5610
5682 5682 5681 5680 5679 5677 5676 5674 5674 5674 5674 5673 5671 5669 5666 5664 5661 5657 5655 5652 5649 5645 5641 5636 5633 5630 5628 5626 5624 5622 5620 5619 5617 5616 5614 5613 5610 5609 5607 5606 5605 5603 5601
5673 5672 5671 5671 5669 5668 5666 5665 5663 5662 5662 5661 5661 5660 5658 5655 5652 5649 5645 5642 5638 5636 5631 5628 5625 5623 5621 5618 5616 5614 5612 5611 5609 5607 5605 5603 5602 5600 5598 5597 5595 5593 5592
5665 5664 5663 5661 5660 5659 5658 5657 5656 5654 5652 5650 5650 5650 5648 5646 5643 5640 5636 5632 5627 5625 5623 5621 5618 5616 5614 5611 5608 5606 5604 5602 5600 5598 5596 5595 5593 5592 5589 5588 5586 5584 5583
5656 5655 5654 5653 5652 5651 5650 5649 5647 5645 5643 5641 5640 5639 5638 5636 5633 5631 5628 5625 5621 5618 5616 5614 5612 5610 5607 5605 5602 5600 5598 5595 5593 5591 5589 5587 5585 5583 5581 5579 5578 5576 5574
5648 5649 5648 5646 5645 5643 5642 5640 5638 5637 5635 5634 5632 5631 5628 5626 5623 5621 5619 5617 5615 5613 5610 5608 5607 5605 5602 5599 5596 5593 5591 5588 5586 5584 5582 5580 5578 5576 5574 5572 5570 5567 5565
5640 5640 5640 5639 5637 5636 5635 5633 5632 5630 5629 5627 5626 5625 5622 5620 5618 5616 5613 5611 5610 5608 5606 5603 5601 5599 5596 5593 5590 5587 5584 5582 5579 5577 5575 5573 5570 5568 5567 5565 5563 5560 5558
5632 5631 5631 5630 5629 5628 5627 5626 5625 5624 5622 5621 5619 5618 5616 5614 5612 5611 5609 5607 5605 5603 5601 5598 5595 5592 5590 5588 5585 5582 5579 5576 5573 5571 5569 5566 5564 5562 5560 5558 5555 5553 5550
5625 5625 5624 5624 5623 5622 5621 5620 5618 5617 5616 5615 5613 5611 5608 5607 5606 5605 5604 5602 5600 5598 5595 5592 5589 5586 5583 5581 5579 5577 5573 5571 5568 5566 5563 5560 5558 5555 5553 5551 5549 5546 5543
5619 5619 5618 5617 5616 5615 5614 5613 5612 5612 5610 5608 5606 5605 5603 5601 5600 5599 5598 5597 5595 5592 5590 5587 5584 5581 5578 5576 5573 5571 5569 5567 5565 5562 5559 5556 5553 5550 5547 5544 5542 5539 5536
5613 5613 5613 5612 5611 5609 5608 5607 5607 5606 5605 5603 5601 5599 5598 5596 5595 5593 5592 5590 5588 5585 5583 5581 5578 5575 5573 5571 5569 5566 5564 5562 5559 5557 5554 5550 5547 5544 5541 5538 5535 5532 5530
5608 5608 5607 5607 5605 5604 5603 5602 5602 5601 5600 5598 5596 5594 5592 5591 5589 5587 5585 5583 5581 5578 5576 5574 5572 5569 5567 5565 5563 5561 5558 5556 5554 5551 5548 5544 5540 5537 5534 5531 5529 5526 5524